Weather in Karatayka

Russia / Nenets Autonomous Okrug     68°45′38″N   61°24′49″E
temp.,
°C
wind,
m/s
gust,
m/s
humid.,
%
clouds,
%
prec.,
mm/h
press.,
hPa
HPBL,
m
8 march, mon
mon800:00−33ne239498 0.0 101220
03:00−32nne239599 0.1 101222
06:00−33nne239589 0.0 101119
09:00−32nne229491 0.0 101130
12:00−31nnw239476 0.0 101160
15:00−32nnw239678 0.0 101019
18:00−32nnw229996 0.0 101019
21:00−32wnw1110098 0.1 101019
9 march, tue
tue900:00−32w11100100 0.1 101019
03:00−32nnw0010098 0.1 100919
06:00−31wnw119994 0.0 100919
09:00−28wsw119896 0.1 101071
12:00−27sw239997 0.0 101076
15:00−28w229998 0.1 101019
18:00−27sw2399100 0.1 101086
21:00−27ssw3599100 0.3 1009132
10 march, wed
wed1000:00−27s3499100 0.2 1007101
03:00−27sse2398100 0.3 100783
06:00−29sse2299100 0.1 100719
09:00−30se229774 0.1 100719
12:00−29se11940 0.0 100919
15:00−29s229544 0.0 100819
18:00−29ssw2396100 0.0 100828
21:00−27s3596100 0.1 1007133
11 march, thu
thu1100:00−26sse359295 0.0 100697
03:00−26s349098 0.0 100572
06:00−26sse3493100 0.0 100460
09:00−24sse469599 0.0 1003187
12:00−22sse4795100 0.0 1002256
15:00−23sse469698 0.1 1001124
18:00−25sse449896 0.0 99954
21:00−22sse349998 0.1 99883
12 march, fri
fri1200:00−18ssw3598100 0.0 996116
03:00−13sw51196100 0.2 994345
06:00−12wsw81491100 0.4 993513
09:00−12wsw91594100 0.9 991658
12:00−11wsw101594100 2.1 991799
15:00−9wsw101694100 4.1 991771
18:00−9w91594100 1.4 991656
21:00−10wsw71395100 3.9 992713